RH
47 50 53 59 68 71 69 68 78 76 59 57 54 56 56 45 43 41 40 41 42 44 47 49 45 50 47 44 40 47 56 59 55 55 46 53 56 46 31 40 54 47 32
54 56 62 76 78 80 84 83 83 81 69 58 58 53 58 48 42 40 39 39 40 39 36 43 44 43 46 42 43 49 56 62 62 57 65 65 60 49 25 50 48 42 34
53 62 77 88 90 88 82 73 69 65 59 50 48 50 50 52 47 47 45 38 36 38 37 38 40 43 46 48 47 50 51 63 64 56 55 52 65 54 53 36 49 30 48
54 68 86 88 86 86 77 67 62 59 56 50 50 48 51 55 68 59 47 40 34 36 36 37 37 40 45 43 44 42 47 55 64 63 50 56 58 67 67 61 37 48 33
56 73 80 77 76 75 72 67 64 62 64 60 56 58 64 67 68 55 43 37 36 34 34 36 36 37 44 41 41 44 44 52 65 63 68 63 62 64 78 54 50 39 39
68 75 74 68 69 68 67 65 61 64 62 60 64 62 60 57 53 54 48 44 40 39 34 31 34 35 38 40 41 43 44 49 54 57 57 59 60 61 57 47 48 50 43
72 75 70 64 64 66 64 60 58 61 58 55 51 48 46 42 40 41 40 36 34 37 32 32 31 35 36 37 38 44 49 51 51 48 50 55 59 60 49 53 55 54 48
71 70 66 62 63 62 61 57 54 53 48 44 43 40 39 41 39 36 36 34 34 33 30 30 30 30 32 34 37 47 50 44 49 44 49 56 56 56 53 59 63 66 58
72 71 66 63 64 62 59 54 50 47 43 40 37 37 35 34 33 31 31 32 29 23 28 30 30 32 33 34 38 46 41 43 45 49 53 55 55 57 56 59 62 71 77
76 70 65 67 64 60 59 52 45 42 38 35 32 32 31 29 28 27 26 27 27 28 30 31 32 34 35 36 38 42 42 41 47 44 53 55 57 56 61 66 63 64 69
77 70 66 65 63 59 53 49 43 38 35 32 31 31 29 28 28 27 27 27 28 30 31 33 34 35 37 38 41 40 39 41 46 52 56 62 60 61 62 65 65 66 66
74 69 67 67 63 59 52 48 45 38 35 33 31 31 30 28 28 29 29 30 30 32 34 36 37 38 40 42 43 43 43 43 50 55 62 64 50 64 66 66 66 64 60
73 70 71 66 64 57 52 50 44 39 36 34 33 33 31 30 31 32 32 32 34 35 37 38 41 42 44 46 44 43 42 47 53 58 64 67 64 64 67 67 64 61 55
71 71 70 68 61 56 52 48 43 38 36 35 35 35 34 32 33 35 35 35 36 38 40 42 43 45 44 44 42 45 51 55 54 60 67 66 66 66 66 58 58 60 63
73 70 71 69 64 59 51 45 41 38 36 39 39 38 36 36 36 36 36 37 39 40 42 43 43 44 42 29 44 48 53 57 58 62 62 61 59 60 56 53 58 61 77
70 68 68 69 66 57 49 40 39 40 39 40 39 38 36 36 37 37 37 37 40 41 43 44 45 46 34 46 46 46 47 52 59 62 58 59 60 61 63 65 64 61 65
68 69 68 66 62 52 41 40 39 38 37 37 35 35 34 34 36 35 36 39 41 45 46 46 46 47 49 46 49 52 50 59 62 64 61 60 52 68 73 72 63 67 82
68 68 67 64 57 46 41 37 35 35 36 36 33 33 34 33 34 35 37 41 43 46 47 46 48 51 40 49 53 57 60 62 62 65 66 68 74 69 59 57 75 91 78
66 67 65 59 48 40 35 34 35 34 35 32 31 31 32 33 35 37 41 43 46 49 48 48 50 48 50 51 56 57 60 61 64 60 64 76 67 62 63 83 84 67 62
69 66 57 48 40 35 32 32 34 34 32 31 32 32 34 34 36 39 44 46 48 47 49 47 46 48 49 54 57 56 56 63 64 74 81 69 59 65 78 59 62 73 63
58 50 45 42 36 33 32 33 35 32 33 34 34 34 35 36 39 45 47 48 51 51 52 48 49 49 53 62 59 58 55 60 86 72 65 62 73 71 61 61 62 65 74
50 44 42 39 36 34 33 34 33 35 36 37 36 37 38 38 38 47 49 51 53 53 54 54 56 58 61 62 59 58 58 60 59 68 69 76 69 62 62 63 67 71 68
46 42 41 39 40 37 30 33 37 37 37 36 37 41 43 46 46 51 54 55 54 58 59 57 63 59 56 67 62 61 60 59 63 71 69 67 63 63 63 67 67 66 68
46 42 39 39 39 36 35 36 38 37 37 40 44 48 49 54 53 53 51 57 62 66 58 58 62 64 60 60 58 57 61 68 76 78 72 61 62 65 65 63 63 64 70
45 41 39 37 40 39 39 39 39 39 41 45 47 50 54 59 59 55 58 66 64 63 60 64 63 65 66 59 58 57 58 65 64 62 62 61 65 68 67 66 68 70 72
50 48 43 38 41 40 41 43 43 44 46 46 50 56 62 63 58 62 64 56 53 54 53 54 55 56 59 60 61 61 65 63 65 65 67 73 77 78 74 78 79 78 81
Wind_Speed
5 6 6 6 6 5 8 6 9 9 9 8 8 5 5 7 8 7 10 8 7 7 7 5 6 5 5 5 6 3 5 3 6 3 5 5 3 2 6 4 5 6 7
7 6 6 5 3 6 7 8 8 8 6 6 6 6 4 6 7 7 8 8 8 7 7 6 5 6 5 6 6 6 3 3 4 3 2 5 6 4 13 4 5 6 7
14 8 7 6 6 7 8 9 10 10 9 12 11 9 8 5 6 5 5 6 7 7 7 6 5 5 4 4 3 4 5 3 3 5 3 5 3 8 3 7 3 13 4
8 7 7 6 7 6 8 10 11 12 9 10 11 11 7 8 2 4 4 5 6 7 6 6 6 5 3 5 3 4 2 3 3 3 2 2 3 4 7 3 11 4 11
17 15 12 10 6 7 8 9 11 10 8 9 10 9 9 7 4 5 7 7 6 6 6 6 5 5 4 3 5 5 5 2 2 1 2 2 4 5 4 11 7 9 9
13 11 8 10 8 6 8 9 12 9 9 10 9 11 12 9 8 5 5 4 3 4 5 5 5 4 4 4 4 4 5 4 3 2 3 2 2 4 5 10 11 11 9
18 16 15 13 11 10 10 10 13 10 10 11 10 10 9 9 9 6 4 4 2 3 4 4 5 3 3 4 4 4 4 3 3 4 3 2 3 3 6 8 12 10 10
18 17 15 13 12 11 10 13 13 12 11 12 10 8 8 6 5 5 4 4 3 2 2 3 4 5 5 5 5 3 3 4 4 6 4 3 4 4 6 7 10 14 10
19 17 14 13 12 11 11 14 13 10 11 11 9 8 7 7 6 7 5 3 3 2 4 3 4 5 5 5 5 4 5 5 3 5 4 4 4 5 6 7 6 8 15
16 15 13 13 9 11 10 11 11 12 10 10 8 7 7 7 6 6 6 5 3 3 4 5 5 5 5 5 5 4 5 5 4 4 5 4 5 7 6 6 7 8 10
17 15 13 11 11 10 11 11 11 12 9 9 8 8 7 6 6 5 5 4 3 4 4 4 5 5 6 6 5 6 6 5 5 5 5 6 6 7 7 7 8 9 9
16 15 15 13 13 12 11 11 10 10 8 8 8 7 7 6 6 5 4 3 4 4 4 5 5 6 6 6 6 6 6 6 6 6 6 7 7 9 8 7 11 11 12
16 14 13 14 13 12 11 10 9 9 8 8 8 7 6 6 5 4 4 4 4 4 5 5 6 6 6 6 7 6 6 7 7 6 6 8 8 10 9 10 11 10 10
18 15 14 13 12 11 11 10 9 9 8 8 7 7 6 6 5 4 4 4 4 5 6 6 6 5 6 6 6 6 7 7 6 7 7 8 9 10 12 12 13 12 13
16 16 15 13 12 12 11 10 9 9 8 8 7 6 5 5 4 3 3 4 5 5 5 5 6 6 6 6 10 7 6 7 7 7 7 8 14 24 22 14 15 16 13
17 16 16 15 14 13 12 11 10 9 8 7 6 5 6 5 4 3 4 5 5 5 5 6 6 7 6 18 20 18 10 7 7 9 9 9 16 16 26 28 30 26 18
18 18 17 15 14 14 14 12 11 9 8 7 6 5 5 4 4 4 4 5 5 5 6 6 6 7 7 18 21 22 9 6 7 8 9 10 9 17 14 22 27 26 26
16 16 14 13 13 13 12 12 10 9 8 7 6 5 5 4 3 3 4 5 3 4 5 6 6 6 6 19 21 23 8 8 9 8 9 8 13 14 21 19 18 11 11
13 12 12 14 14 14 13 12 9 9 7 6 5 5 4 3 2 3 4 4 3 4 4 5 6 6 6 16 20 18 9 10 10 10 8 12 14 24 31 18 16 15 14
14 16 15 15 15 12 13 13 10 8 7 6 6 5 4 2 3 3 4 2 3 5 4 6 6 10 7 14 20 18 9 11 10 10 9 17 22 31 29 20 15 14 16
17 15 15 15 14 12 12 11 9 7 6 6 6 4 3 2 1 2 2 4 5 5 5 5 6 6 7 8 19 21 11 10 10 10 10 10 26 29 30 28 11 16 20
15 15 15 13 10 10 12 10 8 6 6 6 5 4 3 2 3 4 5 4 5 5 6 6 5 4 6 13 16 21 22 21 11 11 11 12 28 29 27 20 26 27 22
13 11 15 13 7 7 9 10 7 7 6 6 5 3 3 3 3 4 5 4 5 4 5 5 5 7 6 5 17 21 22 20 14 10 19 26 26 24 18 23 26 23 10
12 12 14 11 8 7 7 8 7 6 6 6 4 3 3 3 4 3 3 3 4 4 5 6 7 6 7 6 8 8 9 14 11 16 10 17 20 20 19 15 13 10 10
10 10 11 10 8 7 8 6 6 7 6 5 3 2 1 3 4 3 3 3 4 5 6 5 5 7 9 9 20 19 12 12 16 18 9 9 10 10 11 11 11 10 10
9 9 8 10 7 8 7 6 6 6 6 4 1 1 1 2 2 3 5 6 11 14 15 16 13 8 17 23 25 25 25 26 25 10 9 10 10 10 11 12 12 11 14
Wind_Direction
179 197 180 146 126 126 127 133 121 129 124 120 115 93 93 99 88 82 78 75 72 63 63 56 50 42 51 38 25 354 4 348 354 358 320 317 335 101 353 344 345 15 356
174 199 170 146 148 134 113 103 103 106 100 107 103 103 117 88 94 88 74 69 65 59 66 62 53 44 45 31 28 32 351 337 23 322 302 340 328 338 332 329 346 355 341
183 187 162 149 130 134 130 118 112 105 105 112 105 100 99 87 86 69 67 57 66 63 66 64 63 53 50 39 27 29 38 349 327 8 66 348 317 325 305 320 343 337 328
171 152 148 146 140 138 116 115 115 116 116 122 118 127 126 121 101 101 94 71 64 63 62 66 62 57 47 39 8 30 18 20 351 329 26 223 242 301 316 319 319 314 317
165 163 157 146 137 126 115 112 110 107 105 105 114 115 105 101 97 99 94 78 61 63 60 60 52 47 41 26 27 12 10 15 316 326 313 271 255 245 266 299 312 305 306
148 135 121 124 115 111 106 106 109 101 100 105 99 111 117 120 113 107 100 92 74 55 49 54 48 39 33 19 8 5 10 348 338 310 306 279 294 303 301 299 301 294 296
145 144 142 140 133 131 118 114 112 102 103 102 102 108 109 111 114 121 121 109 84 47 29 40 32 21 15 18 14 7 352 341 331 317 300 296 280 271 299 299 303 300 303
148 150 147 143 135 135 117 115 115 112 109 108 103 99 100 105 104 113 106 98 100 102 64 51 39 24 18 10 7 344 331 333 323 326 327 304 292 287 299 297 302 305 299
149 147 144 140 134 132 125 123 120 114 111 112 108 102 103 103 105 98 94 91 80 85 56 45 32 18 11 1 351 334 323 321 310 311 319 300 297 302 297 291 288 296 308
140 145 144 136 132 129 120 115 117 120 117 110 111 108 108 101 103 96 96 91 75 50 38 23 16 4 354 341 337 321 307 310 308 301 305 296 304 306 296 291 290 282 286
149 147 141 135 133 125 127 121 118 120 116 112 110 109 106 103 98 97 93 92 74 42 28 13 360 345 329 321 320 308 296 314 294 291 289 290 293 301 299 292 288 286 284
145 145 143 141 139 134 133 129 124 121 122 117 113 109 108 106 102 98 95 81 56 26 12 356 342 328 320 318 319 308 310 294 290 284 285 280 304 300 296 293 293 287 285
145 145 143 148 145 141 137 131 128 126 123 117 115 108 112 109 106 99 73 53 34 9 356 352 339 327 322 317 303 291 285 281 277 276 272 273 289 302 294 287 289 290 291
153 151 150 151 149 143 137 132 128 128 124 119 113 116 119 116 106 89 65 39 15 5 356 344 327 322 316 301 292 288 282 283 277 267 263 271 281 292 290 299 299 302 300
157 160 157 152 145 139 135 129 126 127 127 117 117 121 119 104 98 73 43 20 17 2 347 339 328 321 317 323 323 312 299 289 281 277 277 282 294 308 310 309 313 305 301
165 162 156 150 150 145 139 136 134 131 124 120 121 124 112 108 88 55 26 19 4 347 339 337 323 316 325 327 332 334 323 311 302 304 300 293 301 302 313 310 307 304 302
166 163 161 155 149 147 144 141 135 127 122 122 126 123 119 105 73 45 23 1 339 336 333 324 320 318 312 333 337 334 330 329 308 302 302 306 309 312 298 295 302 298 304
161 159 151 140 138 134 127 124 128 124 123 124 125 124 112 91 58 30 5 335 325 330 317 310 315 308 310 340 339 333 329 315 303 287 294 299 305 303 307 307 303 324 314
149 142 135 129 130 131 131 125 122 124 124 128 129 124 110 87 41 2 343 314 314 311 296 299 301 310 307 333 335 331 320 309 303 302 303 300 306 306 313 322 321 318 308
124 125 124 124 124 130 130 127 132 129 132 136 132 124 117 94 18 340 323 291 292 288 300 304 303 319 314 310 328 328 314 314 309 312 295 305 314 318 324 325 323 321 309
118 117 121 126 129 128 127 126 129 130 130 125 127 116 89 37 349 336 321 310 308 307 308 299 306 303 295 294 318 325 322 314 318 312 321 314 317 325 328 325 331 303 317
114 117 115 116 117 121 123 126 124 134 125 125 117 98 63 16 20 356 326 318 323 319 312 314 306 287 287 301 316 323 323 327 324 322 313 309 323 328 326 328 314 323 332
110 112 116 113 103 107 127 123 143 130 125 117 105 79 45 36 11 346 326 330 329 328 318 311 316 320 312 278 303 316 325 330 328 318 316 330 325 326 323 317 324 327 316
107 114 114 116 111 109 104 119 132 128 120 113 101 70 38 13 348 332 323 325 322 315 313 322 324 318 318 315 307 319 321 330 327 315 323 324 323 320 318 319 318 317 317
115 121 124 122 121 117 114 121 125 120 115 111 91 46 355 333 321 326 309 323 296 315 328 319 317 320 323 317 330 331 331 330 332 334 330 320 321 321 320 319 317 318 317
117 111 109 117 123 118 118 120 121 124 123 109 100 300 314 306 318 328 319 326 337 338 336 334 331 325 321 326 329 328 337 337 333 336 320 319 319 318 318 317 317 318 319